BAW23 EGLL-EDDM

Flight info

Callsign BAW23
Flight time 1h 23m
Altitude 41000
Route DET1J DET L6 DVR UL9 KONAN UL607 SPI DCT MOVUM T109 HAREM T104 ROKIL ROKIL1B
Aircraft B78X/M-V/N

Departure

Time 2026-05-07 17:04
Airport London Heathrow Airport (EGLL)

Arrival

Time 2026-05-07 18:27
Airport Munich Airport (EDDM)
Time Latitude Longitude Altitude Speed Heading
2026-05-07 16:32 51.47267 -0.44206 93 ft 0 kts 270°
2026-05-07 16:45 51.47267 -0.44199 95 ft 3 kts 270°
2026-05-07 16:46 51.47267 -0.44156 94 ft 4 kts 270°
2026-05-07 16:46 51.47267 -0.44121 94 ft 4 kts 263°
2026-05-07 16:46 51.47271 -0.44088 91 ft 4 kts 229°
2026-05-07 16:46 51.47288 -0.44066 91 ft 4 kts 193°
2026-05-07 16:47 51.47311 -0.44061 93 ft 3 kts 180°
2026-05-07 16:47 51.47314 -0.44061 92 ft 0 kts 180°
2026-05-07 16:47 51.47315 -0.44061 92 ft 0 kts 180°
2026-05-07 16:50 51.47311 -0.44061 93 ft 3 kts 179°
2026-05-07 16:50 51.47286 -0.44061 94 ft 4 kts 179°
2026-05-07 16:51 51.47255 -0.44060 95 ft 5 kts 179°
2026-05-07 16:51 51.47223 -0.44060 96 ft 5 kts 180°
2026-05-07 16:51 51.47189 -0.44060 96 ft 5 kts 180°
2026-05-07 16:51 51.47151 -0.44060 96 ft 6 kts 180°
2026-05-07 16:52 51.47108 -0.44060 96 ft 7 kts 179°
2026-05-07 16:52 51.47060 -0.44059 96 ft 7 kts 180°
2026-05-07 16:52 51.47009 -0.44058 94 ft 8 kts 179°
2026-05-07 16:52 51.46954 -0.44057 95 ft 8 kts 179°
2026-05-07 16:53 51.46830 -0.44057 95 ft 9 kts 180°
2026-05-07 16:53 51.46762 -0.44057 93 ft 10 kts 179°
2026-05-07 16:53 51.46694 -0.44067 93 ft 7 kts 205°
2026-05-07 16:54 51.46672 -0.44124 95 ft 6 kts 250°
2026-05-07 16:54 51.46667 -0.44199 93 ft 7 kts 267°
2026-05-07 16:54 51.46666 -0.44289 93 ft 9 kts 270°
2026-05-07 16:54 51.46666 -0.44393 93 ft 10 kts 270°
2026-05-07 16:55 51.46666 -0.44512 93 ft 11 kts 270°
2026-05-07 16:55 51.46665 -0.44644 93 ft 13 kts 269°
2026-05-07 16:55 51.46664 -0.44792 93 ft 14 kts 269°
2026-05-07 16:55 51.46662 -0.44954 93 ft 15 kts 269°
2026-05-07 16:56 51.46660 -0.45130 93 ft 16 kts 269°
2026-05-07 16:56 51.46657 -0.45321 96 ft 18 kts 268°
2026-05-07 16:56 51.46646 -0.45737 96 ft 20 kts 267°
2026-05-07 16:57 51.46637 -0.45965 93 ft 21 kts 266°
2026-05-07 16:57 51.46628 -0.46187 93 ft 18 kts 265°
2026-05-07 16:57 51.46620 -0.46358 96 ft 13 kts 265°
2026-05-07 16:57 51.46614 -0.46476 96 ft 8 kts 267°
2026-05-07 16:58 51.46621 -0.46530 96 ft 6 kts 283°
2026-05-07 16:58 51.46636 -0.46615 94 ft 9 kts 286°
2026-05-07 16:58 51.46653 -0.46719 95 ft 12 kts 282°
2026-05-07 16:58 51.46657 -0.46881 96 ft 17 kts 270°
2026-05-07 16:59 51.46655 -0.47103 95 ft 22 kts 268°
2026-05-07 16:59 51.46654 -0.47374 92 ft 27 kts 270°
2026-05-07 16:59 51.46654 -0.47694 92 ft 30 kts 270°
2026-05-07 16:59 51.46653 -0.48045 93 ft 26 kts 270°
2026-05-07 17:00 51.46653 -0.48089 93 ft 0 kts 270°
2026-05-07 17:00 51.46653 -0.48102 93 ft 3 kts 269°
2026-05-07 17:00 51.46652 -0.48169 93 ft 9 kts 269°
2026-05-07 17:00 51.46652 -0.48299 93 ft 14 kts 270°
2026-05-07 17:01 51.46652 -0.48487 93 ft 19 kts 270°
2026-05-07 17:01 51.46651 -0.48665 93 ft 0 kts 269°
2026-05-07 17:01 51.46651 -0.48672 94 ft 3 kts 269°
2026-05-07 17:01 51.46639 -0.48727 95 ft 7 kts 236°
2026-05-07 17:02 51.46586 -0.48775 95 ft 12 kts 202°
2026-05-07 17:02 51.46488 -0.48758 97 ft 13 kts 139°
2026-05-07 17:02 51.46477 -0.48671 97 ft 9 kts 91°
2026-05-07 17:02 51.46477 -0.48649 97 ft 0 kts 88°
2026-05-07 17:03 51.46478 -0.48485 94 ft 45 kts 90°
2026-05-07 17:03 51.46477 -0.47520 94 ft 126 kts 89°
2026-05-07 17:03 51.46491 -0.45767 198 ft 182 kts 95°
2026-05-07 17:04 51.46460 -0.43657 1190 ft 188 kts 89°
2026-05-07 17:04 51.46424 -0.41657 2389 ft 182 kts 88°
2026-05-07 17:04 51.46096 -0.39430 2423 ft 235 kts 119°
2026-05-07 17:04 51.44957 -0.37444 3196 ft 245 kts 131°
2026-05-07 17:05 51.44034 -0.35123 4014 ft 254 kts 110°
2026-05-07 17:05 51.43420 -0.32390 5023 ft 264 kts 105°
2026-05-07 17:05 51.42975 -0.29525 5829 ft 271 kts 103°
2026-05-07 17:05 51.42526 -0.26563 5989 ft 267 kts 102°
2026-05-07 17:06 51.42141 -0.23752 5982 ft 261 kts 101°
2026-05-07 17:06 51.41766 -0.20922 5989 ft 258 kts 101°
2026-05-07 17:06 51.41380 -0.18093 6007 ft 259 kts 102°
2026-05-07 17:06 51.40987 -0.15254 6011 ft 260 kts 102°
2026-05-07 17:07 51.40599 -0.12451 6009 ft 259 kts 102°
2026-05-07 17:07 51.40210 -0.09629 6011 ft 258 kts 102°
2026-05-07 17:07 51.39988 -0.08020 6095 ft 260 kts 102°
2026-05-07 17:07 51.39595 -0.05178 6575 ft 262 kts 102°
2026-05-07 17:08 51.39197 -0.02317 7566 ft 265 kts 102°
2026-05-07 17:08 51.38793 0.00594 8624 ft 272 kts 102°
2026-05-07 17:08 51.38439 0.03137 9322 ft 286 kts 102°
2026-05-07 17:08 51.37998 0.06299 9231 ft 285 kts 102°
2026-05-07 17:09 51.37567 0.09375 9219 ft 283 kts 102°
2026-05-07 17:09 51.37134 0.12467 9451 ft 285 kts 102°
2026-05-07 17:09 51.36698 0.15580 10221 ft 287 kts 102°
2026-05-07 17:09 51.36248 0.18780 10997 ft 304 kts 102°
2026-05-07 17:10 51.35768 0.22185 11643 ft 323 kts 102°
2026-05-07 17:10 51.35255 0.25811 12229 ft 344 kts 102°
2026-05-07 17:10 51.34710 0.29655 12759 ft 365 kts 102°
2026-05-07 17:10 51.34132 0.33724 13080 ft 385 kts 102°
2026-05-07 17:11 51.33534 0.37917 13807 ft 396 kts 102°
2026-05-07 17:11 51.32918 0.42234 14615 ft 402 kts 103°
2026-05-07 17:11 51.32287 0.46637 15441 ft 407 kts 103°
2026-05-07 17:11 51.31650 0.51067 16286 ft 412 kts 103°
2026-05-07 17:12 51.31000 0.55579 17129 ft 417 kts 103°
2026-05-07 17:12 51.30339 0.60061 17941 ft 421 kts 105°
2026-05-07 17:12 51.29479 0.64568 18647 ft 426 kts 107°
2026-05-07 17:12 51.28671 0.69152 19353 ft 431 kts 106°
2026-05-07 17:13 51.27854 0.73785 20055 ft 435 kts 107°
2026-05-07 17:13 51.26992 0.78435 20753 ft 439 kts 107°
2026-05-07 17:13 51.26113 0.83124 21588 ft 438 kts 107°
2026-05-07 17:13 51.25255 0.87789 22571 ft 435 kts 107°
2026-05-07 17:14 51.24407 0.92424 23522 ft 433 kts 107°
2026-05-07 17:14 51.23567 0.96963 24252 ft 431 kts 107°
2026-05-07 17:14 51.22712 1.01541 24957 ft 430 kts 107°
2026-05-07 17:14 51.21851 1.06160 25680 ft 428 kts 107°
2026-05-07 17:15 51.21005 1.10702 26371 ft 427 kts 107°
2026-05-07 17:15 51.20169 1.15175 27054 ft 425 kts 107°
2026-05-07 17:15 51.19320 1.19699 27738 ft 424 kts 107°
2026-05-07 17:15 51.18475 1.24189 28412 ft 423 kts 107°
2026-05-07 17:16 51.17629 1.28681 29086 ft 422 kts 107°
2026-05-07 17:16 51.16785 1.33150 29746 ft 420 kts 108°
2026-05-07 17:16 51.16180 1.37700 30382 ft 419 kts 94°
2026-05-07 17:16 51.15961 1.42319 30887 ft 419 kts 95°
2026-05-07 17:17 51.15811 1.45390 31225 ft 418 kts 95°
2026-05-07 17:17 51.15590 1.50000 31760 ft 417 kts 95°
2026-05-07 17:17 51.15371 1.54616 32297 ft 416 kts 95°
2026-05-07 17:17 51.15147 1.59217 32819 ft 416 kts 95°
2026-05-07 17:18 51.14919 1.63803 33347 ft 415 kts 94°
2026-05-07 17:18 51.14692 1.68385 33868 ft 413 kts 94°
2026-05-07 17:18 51.14468 1.72899 34338 ft 413 kts 94°
2026-05-07 17:18 51.14238 1.77468 34731 ft 412 kts 95°
2026-05-07 17:19 51.14007 1.82021 35121 ft 412 kts 95°
2026-05-07 17:19 51.13774 1.86572 35522 ft 413 kts 95°
2026-05-07 17:19 51.13539 1.91128 35906 ft 413 kts 95°
2026-05-07 17:19 51.13302 1.95695 36284 ft 413 kts 95°
2026-05-07 17:20 51.13064 2.00248 36649 ft 413 kts 95°
2026-05-07 17:20 51.12826 2.04769 36987 ft 414 kts 95°
2026-05-07 17:20 51.12583 2.09338 37355 ft 414 kts 96°
2026-05-07 17:20 51.12338 2.13911 37683 ft 415 kts 96°
2026-05-07 17:21 51.12091 2.18512 38010 ft 416 kts 96°
2026-05-07 17:21 51.11841 2.23107 38348 ft 416 kts 96°
2026-05-07 17:21 51.11589 2.27712 38668 ft 417 kts 96°
2026-05-07 17:21 51.11336 2.32314 38923 ft 417 kts 96°
2026-05-07 17:22 51.11084 2.36859 39153 ft 418 kts 96°
2026-05-07 17:22 51.10827 2.41457 39399 ft 418 kts 96°
2026-05-07 17:22 51.10567 2.46078 39635 ft 419 kts 96°
2026-05-07 17:22 51.10305 2.50703 39859 ft 419 kts 96°
2026-05-07 17:23 51.10041 2.55322 40092 ft 419 kts 96°
2026-05-07 17:23 51.09776 2.59928 40315 ft 419 kts 96°
2026-05-07 17:23 51.09491 2.64560 40531 ft 419 kts 101°
2026-05-07 17:23 51.08770 2.69011 40780 ft 414 kts 108°
2026-05-07 17:24 51.08235 2.71936 40884 ft 415 kts 107°
2026-05-07 17:25 51.03066 3.00447 41010 ft 416 kts 108°
2026-05-07 17:25 51.02275 3.04753 41013 ft 416 kts 108°
2026-05-07 17:26 51.00647 3.13579 41009 ft 416 kts 108°
2026-05-07 17:26 50.99014 3.22405 41007 ft 416 kts 108°
2026-05-07 17:27 50.97385 3.31155 41000 ft 416 kts 108°
2026-05-07 17:27 50.95740 3.39962 41004 ft 415 kts 108°
2026-05-07 17:28 50.94088 3.48756 41003 ft 416 kts 108°
2026-05-07 17:28 50.92430 3.57542 41000 ft 416 kts 108°
2026-05-07 17:29 50.90775 3.66269 41002 ft 415 kts 109°
2026-05-07 17:29 50.89083 3.75030 41002 ft 415 kts 109°
2026-05-07 17:30 50.87394 3.83778 41006 ft 415 kts 109°
2026-05-07 17:30 50.85694 3.92530 41005 ft 415 kts 109°
2026-05-07 17:31 50.83998 4.01221 41008 ft 415 kts 109°
2026-05-07 17:31 50.82285 4.09966 41009 ft 415 kts 109°
2026-05-07 17:32 50.80564 4.18703 41015 ft 415 kts 109°
2026-05-07 17:32 50.79134 4.25938 41028 ft 414 kts 109°
2026-05-07 17:33 50.77122 4.36070 41020 ft 415 kts 109°
2026-05-07 17:33 50.75388 4.44761 41021 ft 415 kts 109°
2026-05-07 17:34 50.73647 4.53448 41020 ft 415 kts 110°
2026-05-07 17:34 50.71903 4.62119 41012 ft 415 kts 109°
2026-05-07 17:35 50.70246 4.70793 41019 ft 413 kts 109°
2026-05-07 17:35 50.68547 4.79499 41015 ft 415 kts 109°
2026-05-07 17:36 50.66845 4.88224 41014 ft 415 kts 109°
2026-05-07 17:36 50.65125 4.96858 41013 ft 415 kts 110°
2026-05-07 17:37 50.63323 5.05508 41012 ft 415 kts 110°
2026-05-07 17:37 50.61553 5.14163 41009 ft 415 kts 110°
2026-05-07 17:38 50.59759 5.22799 41013 ft 414 kts 110°
2026-05-07 17:38 50.57979 5.31377 41016 ft 414 kts 110°
2026-05-07 17:39 50.56178 5.39994 41018 ft 414 kts 110°
2026-05-07 17:39 50.54373 5.48603 41016 ft 414 kts 110°
2026-05-07 17:40 50.52564 5.57193 41015 ft 414 kts 110°
2026-05-07 17:40 50.50898 5.65804 41022 ft 414 kts 107°
2026-05-07 17:41 50.49264 5.74489 41020 ft 415 kts 108°
2026-05-07 17:41 50.47704 5.83221 41025 ft 415 kts 108°
2026-05-07 17:42 50.46104 5.91950 41002 ft 415 kts 108°
2026-05-07 17:42 50.44505 6.00676 40995 ft 416 kts 108°
2026-05-07 17:43 50.42913 6.09330 40997 ft 416 kts 108°
2026-05-07 17:43 50.41300 6.18039 40991 ft 416 kts 108°
2026-05-07 17:44 50.39682 6.26747 40985 ft 416 kts 108°
2026-05-07 17:44 50.38056 6.35450 40988 ft 416 kts 108°
2026-05-07 17:45 50.36420 6.44168 40992 ft 417 kts 108°
2026-05-07 17:45 50.34779 6.52872 40990 ft 416 kts 108°
2026-05-07 17:46 50.33143 6.61508 40991 ft 416 kts 108°
2026-05-07 17:46 50.31489 6.70202 40988 ft 416 kts 109°
2026-05-07 17:47 50.29831 6.78874 40995 ft 416 kts 109°
2026-05-07 17:47 50.28167 6.87538 40996 ft 416 kts 109°
2026-05-07 17:48 50.26779 6.94737 40999 ft 416 kts 109°
2026-05-07 17:48 50.24825 7.04823 40998 ft 417 kts 109°
2026-05-07 17:49 50.23422 7.12033 40999 ft 417 kts 109°
2026-05-07 17:49 50.21727 7.20707 41000 ft 417 kts 109°
2026-05-07 17:50 50.20024 7.29381 40995 ft 417 kts 109°
2026-05-07 17:50 50.18328 7.37984 40993 ft 417 kts 109°
2026-05-07 17:51 50.16612 7.46646 40992 ft 417 kts 109°
2026-05-07 17:51 50.14900 7.55251 40991 ft 417 kts 109°
2026-05-07 17:52 50.13175 7.63886 40989 ft 417 kts 109°
2026-05-07 17:52 50.11441 7.72525 40987 ft 417 kts 109°
2026-05-07 17:53 50.09699 7.81167 40988 ft 417 kts 109°
2026-05-07 17:53 50.07966 7.89728 40986 ft 417 kts 109°
2026-05-07 17:54 50.06212 7.98349 41043 ft 417 kts 109°
2026-05-07 17:54 50.04454 8.06957 41044 ft 417 kts 109°
2026-05-07 17:55 50.03574 8.11248 40747 ft 430 kts 109°
2026-05-07 17:55 50.02638 8.15788 40198 ft 452 kts 109°
2026-05-07 17:55 50.01655 8.20565 39703 ft 469 kts 109°
2026-05-07 17:55 50.00656 8.25424 39204 ft 473 kts 109°
2026-05-07 17:56 49.99648 8.30302 38701 ft 475 kts 109°
2026-05-07 17:56 49.98631 8.35200 38074 ft 477 kts 109°
2026-05-07 17:56 49.97608 8.40112 37447 ft 479 kts 109°
2026-05-07 17:56 49.96581 8.45050 36843 ft 480 kts 109°
2026-05-07 17:57 49.95544 8.50013 36245 ft 482 kts 109°
2026-05-07 17:57 49.94736 8.53205 35884 ft 480 kts 118°
2026-05-07 17:57 49.92595 8.59209 35220 ft 478 kts 120°
2026-05-07 17:57 49.90948 8.63655 35052 ft 469 kts 121°
2026-05-07 17:58 49.87730 8.72356 35062 ft 469 kts 120°
2026-05-07 17:58 49.84482 8.81137 35056 ft 468 kts 121°
2026-05-07 17:59 49.81220 8.89884 35061 ft 469 kts 121°
2026-05-07 17:59 49.77953 8.98650 35056 ft 469 kts 121°
2026-05-07 18:00 49.74701 9.07339 35053 ft 469 kts 121°
2026-05-07 18:00 49.71426 9.16061 35057 ft 469 kts 121°
2026-05-07 18:01 49.68140 9.24784 35057 ft 470 kts 121°
2026-05-07 18:01 49.64231 9.32805 35060 ft 468 kts 134°
2026-05-07 18:02 49.57860 9.44314 34591 ft 476 kts 129°
2026-05-07 18:02 49.55792 9.48238 34008 ft 476 kts 131°
2026-05-07 18:03 49.53645 9.52120 33334 ft 477 kts 131°
2026-05-07 18:03 49.51498 9.56017 32671 ft 477 kts 130°
2026-05-07 18:03 49.49375 9.59967 32023 ft 477 kts 130°
2026-05-07 18:03 49.47262 9.63895 31389 ft 476 kts 130°
2026-05-07 18:04 49.45127 9.67803 30777 ft 475 kts 131°
2026-05-07 18:04 49.43024 9.71638 30182 ft 473 kts 131°
2026-05-07 18:04 49.40922 9.75493 29481 ft 472 kts 131°
2026-05-07 18:04 49.38818 9.79354 28782 ft 470 kts 131°
2026-05-07 18:05 49.36727 9.83174 28304 ft 465 kts 131°
2026-05-07 18:05 49.34634 9.86983 27912 ft 471 kts 131°
2026-05-07 18:05 49.32525 9.90823 27522 ft 468 kts 131°
2026-05-07 18:05 49.30433 9.94633 27132 ft 465 kts 131°
2026-05-07 18:06 49.28364 9.98391 26747 ft 463 kts 131°
2026-05-07 18:06 49.26290 10.02149 26359 ft 461 kts 131°
2026-05-07 18:06 49.24217 10.05901 25987 ft 459 kts 131°
2026-05-07 18:06 49.22160 10.09622 25619 ft 457 kts 131°
2026-05-07 18:07 49.20101 10.13341 25254 ft 455 kts 131°
2026-05-07 18:07 49.18058 10.17025 25053 ft 451 kts 131°
2026-05-07 18:07 49.16013 10.20704 25080 ft 457 kts 132°
2026-05-07 18:07 49.13941 10.24376 25068 ft 453 kts 135°
2026-05-07 18:08 49.11743 10.27852 25072 ft 457 kts 135°
2026-05-07 18:08 49.09580 10.31386 25076 ft 454 kts 134°
2026-05-07 18:08 49.07437 10.34879 25080 ft 458 kts 135°
2026-05-07 18:08 49.05196 10.38459 25092 ft 469 kts 135°
2026-05-07 18:09 49.02945 10.42044 25095 ft 467 kts 135°
2026-05-07 18:09 49.00700 10.45648 25096 ft 470 kts 135°
2026-05-07 18:09 48.98446 10.49267 25097 ft 469 kts 135°
2026-05-07 18:09 48.96228 10.52795 25082 ft 469 kts 135°
2026-05-07 18:10 48.93983 10.56357 25095 ft 469 kts 135°
2026-05-07 18:10 48.91729 10.59944 25096 ft 470 kts 135°
2026-05-07 18:10 48.89462 10.63554 24668 ft 475 kts 135°
2026-05-07 18:10 48.87199 10.67147 24023 ft 471 kts 135°
2026-05-07 18:11 48.84936 10.70730 23328 ft 468 kts 135°
2026-05-07 18:11 48.83415 10.73134 22831 ft 465 kts 135°
2026-05-07 18:11 48.80465 10.77798 21861 ft 460 kts 135°
2026-05-07 18:11 48.78250 10.81283 21141 ft 456 kts 136°
2026-05-07 18:12 48.76053 10.84721 20440 ft 452 kts 136°
2026-05-07 18:12 48.73878 10.88127 19783 ft 448 kts 136°
2026-05-07 18:12 48.71727 10.91497 19120 ft 444 kts 136°
2026-05-07 18:12 48.69586 10.94846 18472 ft 440 kts 136°
2026-05-07 18:13 48.67471 10.98144 17770 ft 435 kts 136°
2026-05-07 18:13 48.65363 11.01419 17045 ft 431 kts 136°
2026-05-07 18:13 48.63292 11.04638 16343 ft 427 kts 136°
2026-05-07 18:13 48.61222 11.07854 15650 ft 422 kts 136°
2026-05-07 18:14 48.59190 11.11007 15158 ft 414 kts 136°
2026-05-07 18:14 48.57077 11.13826 15053 ft 401 kts 148°
2026-05-07 18:14 48.54730 11.16181 15049 ft 407 kts 145°
2026-05-07 18:14 48.52747 11.19224 15048 ft 411 kts 131°
2026-05-07 18:15 48.51045 11.22692 15051 ft 410 kts 126°
2026-05-07 18:15 48.49450 11.26279 15052 ft 412 kts 125°
2026-05-07 18:15 48.47895 11.29903 15051 ft 411 kts 124°
2026-05-07 18:15 48.46355 11.33535 15049 ft 412 kts 124°
2026-05-07 18:16 48.44819 11.37173 15049 ft 412 kts 124°
2026-05-07 18:16 48.43366 11.40882 15047 ft 414 kts 115°
2026-05-07 18:16 48.42603 11.45047 15056 ft 413 kts 97°
2026-05-07 18:16 48.42501 11.49399 15053 ft 416 kts 89°
2026-05-07 18:17 48.42656 11.53743 15054 ft 416 kts 85°
2026-05-07 18:17 48.42897 11.58051 15052 ft 403 kts 84°
2026-05-07 18:17 48.43156 11.62155 15040 ft 384 kts 84°
2026-05-07 18:17 48.43415 11.66132 14793 ft 386 kts 84°
2026-05-07 18:18 48.43679 11.70129 14382 ft 380 kts 84°
2026-05-07 18:18 48.43944 11.74095 13758 ft 381 kts 84°
2026-05-07 18:18 48.44213 11.78062 13087 ft 380 kts 84°
2026-05-07 18:18 48.44478 11.81941 12399 ft 362 kts 84°
2026-05-07 18:19 48.44728 11.85605 11726 ft 343 kts 84°
2026-05-07 18:19 48.44968 11.89106 11066 ft 329 kts 84°
2026-05-07 18:19 48.45198 11.92465 10417 ft 317 kts 84°
2026-05-07 18:19 48.45419 11.95693 9813 ft 302 kts 84°
2026-05-07 18:20 48.45631 11.98776 9169 ft 290 kts 84°
2026-05-07 18:20 48.45831 12.01746 8517 ft 281 kts 84°
2026-05-07 18:20 48.46017 12.04595 7882 ft 273 kts 84°
2026-05-07 18:20 48.46198 12.07431 7262 ft 264 kts 84°
2026-05-07 18:21 48.46363 12.10111 6664 ft 257 kts 84°
2026-05-07 18:21 48.46382 12.12763 5999 ft 252 kts 102°
2026-05-07 18:21 48.45505 12.14955 5318 ft 244 kts 142°
2026-05-07 18:21 48.43995 12.15959 4663 ft 237 kts 169°
2026-05-07 18:22 48.42397 12.16112 4110 ft 225 kts 197°
2026-05-07 18:22 48.41506 12.15360 4044 ft 219 kts 223°
2026-05-07 18:22 48.40200 12.13038 4054 ft 220 kts 234°
2026-05-07 18:22 48.39274 12.11220 4053 ft 221 kts 234°
2026-05-07 18:23 48.38349 12.09403 4055 ft 220 kts 234°
2026-05-07 18:23 48.37422 12.07582 4059 ft 219 kts 234°
2026-05-07 18:23 48.36533 12.05742 4043 ft 218 kts 242°
2026-05-07 18:23 48.36259 12.03594 4037 ft 201 kts 269°
2026-05-07 18:24 48.36102 12.01555 4042 ft 186 kts 263°
2026-05-07 18:24 48.35947 11.99721 4035 ft 177 kts 264°
2026-05-07 18:24 48.35810 11.97885 3818 ft 171 kts 265°
2026-05-07 18:24 48.35673 11.96069 3585 ft 174 kts 265°
2026-05-07 18:25 48.35535 11.94275 3358 ft 176 kts 264°
2026-05-07 18:25 48.35396 11.92469 3131 ft 177 kts 265°
2026-05-07 18:25 48.35256 11.90651 2882 ft 173 kts 265°
2026-05-07 18:25 48.35117 11.88831 2641 ft 174 kts 265°
2026-05-07 18:26 48.34977 11.87017 2400 ft 180 kts 265°
2026-05-07 18:26 48.34844 11.85253 2148 ft 159 kts 266°
2026-05-07 18:26 48.34717 11.83614 1886 ft 157 kts 264°
2026-05-07 18:26 48.34606 11.82014 1754 ft 158 kts 268°
2026-05-07 18:27 48.34476 11.80414 1539 ft 154 kts 264°
2026-05-07 18:27 48.34364 11.78928 1476 ft 125 kts 263°
2026-05-07 18:27 48.34281 11.77877 1493 ft 80 kts 263°
2026-05-07 18:27 48.34249 11.77474 1480 ft 38 kts 264°
2026-05-07 18:28 48.34332 11.77007 1480 ft 34 kts 294°
2026-05-07 18:28 48.34358 11.76918 1483 ft 0 kts 293°
2026-05-07 18:31 48.34369 11.76879 1490 ft 14 kts 293°
2026-05-07 18:31 48.34415 11.76745 1481 ft 14 kts 309°
2026-05-07 18:32 48.34503 11.76695 1483 ft 14 kts 351°
2026-05-07 18:32 48.34574 11.76748 1486 ft 11 kts 70°
2026-05-07 18:32 48.34583 11.76863 1484 ft 12 kts 84°
2026-05-07 18:32 48.34592 11.76991 1489 ft 13 kts 83°
2026-05-07 18:33 48.34603 11.77131 1494 ft 14 kts 83°
2026-05-07 18:33 48.34611 11.77230 1479 ft 15 kts 83°
2026-05-07 18:33 48.34623 11.77388 1481 ft 16 kts 83°
2026-05-07 18:33 48.34642 11.77616 1485 ft 17 kts 83°
2026-05-07 18:34 48.34652 11.77734 1477 ft 18 kts 82°
2026-05-07 18:34 48.34669 11.77921 1484 ft 18 kts 82°
2026-05-07 18:34 48.34688 11.78115 1486 ft 19 kts 81°
2026-05-07 18:34 48.34709 11.78317 1485 ft 20 kts 81°
2026-05-07 18:35 48.34712 11.78518 1479 ft 19 kts 87°
2026-05-07 18:35 48.34726 11.78715 1477 ft 8 kts 84°
2026-05-07 18:35 48.34726 11.78718 1477 ft 0 kts 84°
2026-05-07 18:39 48.34726 11.78719 1489 ft 1 kts 84°
2026-05-07 18:40 48.34728 11.78745 1478 ft 3 kts 84°
2026-05-07 18:40 48.34731 11.78787 1487 ft 5 kts 84°
2026-05-07 18:40 48.34735 11.78847 1479 ft 7 kts 84°
2026-05-07 18:40 48.34741 11.78924 1482 ft 8 kts 82°
2026-05-07 18:41 48.34749 11.79015 1485 ft 10 kts 82°
2026-05-07 18:41 48.34758 11.79122 1488 ft 11 kts 84°
2026-05-07 18:41 48.34766 11.79241 1482 ft 12 kts 84°
2026-05-07 18:41 48.34776 11.79373 1480 ft 13 kts 83°
2026-05-07 18:42 48.34780 11.79512 1473 ft 11 kts 104°
2026-05-07 18:42 48.34752 11.79545 1474 ft 3 kts 164°
2026-05-07 18:42 48.34726 11.79550 1476 ft 4 kts 180°
2026-05-07 18:42 48.34696 11.79531 1472 ft 5 kts 217°
2026-05-07 18:43 48.34683 11.79489 1474 ft 5 kts 248°
2026-05-07 18:43 48.34674 11.79435 1487 ft 4 kts 265°
2026-05-07 18:43 48.34671 11.79380 1487 ft 6 kts 265°
2026-05-07 18:43 48.34665 11.79309 1478 ft 8 kts 261°
2026-05-07 18:44 48.34657 11.79222 1485 ft 9 kts 262°
2026-05-07 18:44 48.34649 11.79116 1479 ft 11 kts 264°
2026-05-07 18:44 48.34640 11.78996 1481 ft 12 kts 263°
2026-05-07 18:44 48.34630 11.78860 1484 ft 14 kts 263°
2026-05-07 18:45 48.34618 11.78710 1485 ft 15 kts 263°
2026-05-07 18:45 48.34606 11.78548 1487 ft 16 kts 263°
2026-05-07 18:45 48.34592 11.78374 1484 ft 17 kts 263°
2026-05-07 18:45 48.34578 11.78190 1481 ft 18 kts 264°
2026-05-07 18:46 48.34564 11.78008 1478 ft 14 kts 263°
2026-05-07 18:46 48.34582 11.77927 1479 ft 2 kts 329°
2026-05-07 18:47 48.34585 11.77926 1480 ft 1 kts 338°
2026-05-07 18:47 48.34601 11.77919 1478 ft 4 kts 345°
2026-05-07 18:47 48.34634 11.77908 1485 ft 6 kts 353°
2026-05-07 18:47 48.34681 11.77900 1481 ft 8 kts 353°
2026-05-07 18:48 48.34689 11.77898 1486 ft 0 kts 353°
2026-05-07 18:48 48.34691 11.77898 1485 ft 1 kts 354°
2026-05-07 18:49 48.34713 11.77895 1477 ft 5 kts 354°
2026-05-07 18:49 48.34722 11.77893 1480 ft 1 kts 354°
2026-05-07 18:49 48.34726 11.77893 1482 ft 0 kts 354°
2026-05-07 18:53 48.34727 11.77892 1491 ft 1 kts 354°
2026-05-07 18:53 48.34750 11.77889 1482 ft 6 kts 354°
2026-05-07 18:53 48.34803 11.77880 1491 ft 10 kts 354°
2026-05-07 18:53 48.34883 11.77866 1483 ft 14 kts 353°
2026-05-07 18:54 48.34990 11.77847 1481 ft 17 kts 353°
2026-05-07 18:54 48.35123 11.77823 1480 ft 21 kts 353°
2026-05-07 18:54 48.35280 11.77796 1478 ft 24 kts 353°
2026-05-07 18:54 48.35315 11.77797 1474 ft 1 kts
2026-05-07 18:55 48.35331 11.77794 1480 ft 5 kts 354°
2026-05-07 18:55 48.35379 11.77783 1473 ft 9 kts 350°
2026-05-07 18:55 48.35455 11.77765 1478 ft 13 kts 353°
2026-05-07 18:55 48.35562 11.77745 1473 ft 17 kts 353°
2026-05-07 18:56 48.35694 11.77721 1475 ft 21 kts 353°
2026-05-07 18:56 48.35719 11.77718 1469 ft 0 kts 355°